Вернуться в каталог

FENGYUN 1C DEB

АктивенPO
NORAD 36644·DEBRIS·🇨🇳 China

Запущен May 10, 1999 с Taiyuan Satellite Launch Center

Loading…

Ближайшие Пролёты (ближайшие 24 часа)

TLE

УстаревающийSource: Space-Track

Эпоха: Sep 7, 2026, 12:56 UTC

1 36644U 99025DXN 26250.53926530  .00000949  00000-0  10108-2 0  9990
2 36644  98.4396 357.2170 0286087 193.5880 165.7444 13.59801238652200

Отслеживайте FENGYUN 1C DEB в реальном времени с AllMySat

Download on the App Store